Montague, CA

2:53 AM PDT on March 26, 2017 (GMT -0700)
Siskiyou County

Weather History for KSIY - December, 2014

Change the Weather History Date:

Saturday, December 20, 2014

  Actual Average Record
Temperature  
Mean Temperature 46 °F 35 °F  
Max Temperature 49 °F 44 °F 57 °F (1994)
Min Temperature 42 °F 26 °F 7 °F (1984)
Degree Days  
Heating Degree Days 19 30  
Month to date heating degree days 430 598  
Since 1 July heating degree days 1435 1904  
Cooling Degree Days 0 0  
Month to date cooling degree days 0 0  
Year to date cooling degree days 913 544  
Moisture  
Dew Point 40 °F    
Average Humidity 78    
Maximum Humidity 89    
Minimum Humidity 66    
Precipitation  
Precipitation 0.07 in 0.09 in 2.75 in (1981)
Month to date precipitation 2.43 1.72  
Year to date precipitation 13.17 17.53  
Sea Level Pressure  
Sea Level Pressure 30.06 in    
Wind  
Wind Speed 10 mph (SSW)    
Max Wind Speed 24 mph    
Max Gust Speed 29 mph    
Visibility 10 miles    
Events Rain    
T = Trace of Precipitation, MM = Missing Value Source: NWS Daily Summary

Daily Weather History Graph

Daily Weather History Graph

Search for Another Location

Airport or City:

Trip Planner

Search our weather history database for the weather conditions in past years. The results will help you decide how hot, cold, wet, or windy it might be!

Date:

Astronomy

Dec. 20, 2014 Rise Set
Actual Time 7:33 AM PST 4:41 PM PST
Civil Twilight 7:01 AM PST 5:13 PM PST
Nautical Twilight 6:26 AM PST 5:48 PM PST
Astronomical Twilight 5:52 AM PST 6:22 PM PST
Moon 5:53 AM PST (12/20) 3:58 PM PST (12/20)
Length of Visible Light 10h 11m
Length of Day
9h 08m
Waning Crescent, 2% of the Moon is Illuminated
Dec 20
Waning Crescent
Dec 21
New
Dec 28
First Quarter
Jan 4
Full
Jan 13
Last Quarter

Hourly Weather History & Observations

Time (PST) Temp. Windchill Dew Point Humidity Pressure Visibility Wind Dir Wind Speed Gust Speed Precip Events Conditions
12:53 AM 45.0 °F 39.7 °F 37.9 °F 76% 30.02 in 10.0 mi South 10.4 mph - N/A   Overcast
1:53 AM 45.0 °F 40.1 °F 39.0 °F 80% 30.03 in 10.0 mi South 9.2 mph - 0.00 in   Overcast
2:53 AM 44.1 °F 39.0 °F 39.0 °F 82% 30.04 in 10.0 mi SW 9.2 mph - 0.00 in Rain Light Rain
3:53 AM 43.0 °F 40.3 °F 39.0 °F 86% 30.04 in 10.0 mi South 4.6 mph - 0.01 in   Overcast
4:53 AM 43.0 °F 38.8 °F 39.0 °F 86% 30.04 in 10.0 mi SW 6.9 mph - N/A   Mostly Cloudy
5:53 AM 45.0 °F 41.2 °F 37.9 °F 76% 30.04 in 10.0 mi SSW 6.9 mph - N/A   Overcast
6:53 AM 45.0 °F 40.6 °F 37.9 °F 76% 30.04 in 10.0 mi SSW 8.1 mph - N/A   Overcast
7:53 AM 46.0 °F 39.9 °F 37.9 °F 73% 30.03 in 10.0 mi South 13.8 mph - N/A   Overcast
8:53 AM 46.9 °F - 37.9 °F 71% 30.04 in 10.0 mi South 15.0 mph - N/A   Overcast
9:53 AM 48.0 °F - 37.9 °F 68% 30.03 in 10.0 mi South 19.6 mph 29.9 mph N/A   Overcast
10:53 AM 46.9 °F - 39.9 °F 77% 30.05 in 10.0 mi South 12.7 mph - 0.00 in Rain Light Rain
11:53 AM 48.0 °F - 39.9 °F 74% 30.03 in 10.0 mi South 16.1 mph - 0.01 in Rain Light Rain
12:53 PM 48.9 °F - 42.1 °F 77% 30.01 in 10.0 mi South 12.7 mph - 0.00 in   Overcast
1:53 PM 48.0 °F - 42.1 °F 80% 30.03 in 10.0 mi SW 8.1 mph - 0.00 in Rain Light Rain
2:53 PM 48.9 °F - 42.1 °F 77% 30.04 in 10.0 mi South 11.5 mph - 0.02 in Rain Light Rain
3:53 PM 48.9 °F - 41.0 °F 74% 30.04 in 10.0 mi South 17.3 mph - 0.01 in Rain Light Rain
4:53 PM 48.0 °F - 41.0 °F 77% 30.06 in 10.0 mi SW 10.4 mph - 0.00 in Rain Light Rain
5:53 PM 48.0 °F - 41.0 °F 77% 30.07 in 10.0 mi SSW 10.4 mph - 0.01 in   Overcast
6:53 PM 46.9 °F - 42.1 °F 83% 30.10 in 10.0 mi SW 10.4 mph - 0.01 in Rain Light Rain
7:53 PM 46.9 °F - 42.1 °F 83% 30.09 in 10.0 mi SW 4.6 mph - 0.00 in   Overcast
8:53 PM 46.9 °F - 42.1 °F 83% 30.11 in 10.0 mi WSW 5.8 mph - 0.00 in   Overcast
9:53 PM 46.9 °F - 42.1 °F 83% 30.11 in 10.0 mi Calm Calm - N/A   Overcast
10:53 PM 48.0 °F - 42.1 °F 80% 30.12 in 10.0 mi SW 8.1 mph - N/A   Mostly Cloudy
11:53 PM 48.9 °F - 42.1 °F 77% 30.12 in 10.0 mi SSW 12.7 mph - N/A   Overcast